| time (UTC) | temp C | wind direction | speed KPH | gust KPH | rain 1hr cm | rain 24hr cm | rain mn cm | humidity % | barometer mb |
| 20260503004517 | 13 | 13 | 1.6 | 3.2 | 0.00 | 0.00 | 0.00 | 76 | |
| 20260503003517 | 13 | 17 | 0.0 | 1.6 | 0.00 | 0.00 | 0.00 | 76 | |
| 20260503002515 | 14 | 17 | 0.0 | 1.6 | 0.00 | 0.00 | 0.00 | 74 | |
| 20260503001515 | 14 | 34 | 1.6 | 1.6 | 0.00 | 0.00 | 0.00 | 74 | |
| 20260503000556 | 15 | 80 | 1.6 | 1.6 | 0.00 | 0.00 | 0.00 | 73 | |
| 20260502235516 | 15 | 95 | 0.0 | 1.6 | 0.00 | 0.00 | 0.00 | 72 | |
| 20260502234516 | 15 | 10 | 1.6 | 1.6 | 0.00 | 0.00 | 0.00 | 72 | |
| 20260502233517 | 15 | 18 | 1.6 | 3.2 | 0.00 | 0.00 | 0.00 | 72 | |
| 20260502232517 | 15 | 66 | 0.0 | 1.6 | 0.00 | 0.00 | 0.00 | 70 | |
| 20260502231515 | 15 | 1 | 1.6 | 1.6 | 0.00 | 0.00 | 0.00 | 71 | |
| 20260502230535 | 15 | 0.0 | 0.0 | 0.00 | 0.00 | 0.00 | 71 | ||
| 20260502225536 | 15 | 350 | 0.0 | 1.6 | 0.00 | 0.00 | 0.00 | 71 | |
| 20260502224516 | 16 | 31 | 0.0 | 3.2 | 0.00 | 0.00 | 0.00 | 68 | |
| 20260502223517 | 15 | 17 | 0.0 | 1.6 | 0.00 | 0.00 | 0.00 | 68 | |
| 20260502222517 | 15 | 12 | 3.2 | 3.2 | 0.00 | 0.00 | 0.00 | 68 | |
| 20260502221517 | 15 | 9 | 3.2 | 4.8 | 0.00 | 0.00 | 0.00 | 65 | |
| 20260502220515 | 16 | 348 | 3.2 | 4.8 | 0.00 | 0.00 | 0.00 | 64 | |
| 20260502215516 | 16 | 200 | 1.6 | 1.6 | 0.00 | 0.00 | 0.00 | 61 | |
| 20260502214516 | 16 | 0.0 | 0.0 | 0.00 | 0.00 | 0.00 | 60 | ||
| 20260502213516 | 16 | 202 | 0.0 | 6.4 | 0.00 | 0.00 | 0.00 | 57 | |
| 20260502212516 | 16 | 0.0 | 0.0 | 0.00 | 0.00 | 0.00 | 54 | ||
| 20260502211517 | 17 | 10 | 0.0 | 1.6 | 0.00 | 0.00 | 0.00 | 53 | |
| 20260502210517 | 16 | 12 | 3.2 | 3.2 | 0.00 | 0.00 | 0.00 | 53 | |
| 20260502205516 | 17 | 14 | 3.2 | 4.8 | 0.00 | 0.00 | 0.00 | 55 | |
| 20260502204515 | 17 | 82 | 0.0 | 1.6 | 0.00 | 0.00 | 0.00 | 52 | |
| 20260502203517 | 17 | 343 | 0.0 | 1.6 | 0.00 | 0.00 | 0.00 | 51 | |
| 20260502202516 | 17 | 335 | 1.6 | 3.2 | 0.00 | 0.00 | 0.00 | 51 | |
| 20260502201536 | 17 | 337 | 1.6 | 3.2 | 0.00 | 0.00 | 0.00 | 51 | |
| 20260502200517 | 17 | 343 | 1.6 | 4.8 | 0.00 | 0.00 | 0.00 | 53 | |
| 20260502195517 | 17 | 344 | 1.6 | 3.2 | 0.00 | 0.00 | 0.00 | 56 | |
| 20260502194515 | 17 | 349 | 1.6 | 3.2 | 0.00 | 0.00 | 0.00 | 59 | |
| 20260502193515 | 17 | 339 | 1.6 | 3.2 | 0.00 | 0.00 | 0.00 | 64 | |
| 20260502192516 | 17 | 350 | 3.2 | 4.8 | 0.00 | 0.00 | 0.00 | 64 | |
| 20260502191516 | 17 | 344 | 3.2 | 4.8 | 0.00 | 0.00 | 0.00 | 63 | |
| 20260502190516 | 17 | 344 | 3.2 | 4.8 | 0.00 | 0.00 | 0.00 | 63 | |
| 20260502185517 | 17 | 345 | 3.2 | 4.8 | 0.00 | 0.00 | 0.00 | 62 | |
| 20260502184537 | 18 | 8 | 3.2 | 6.4 | 0.00 | 0.00 | 0.00 | 61 | |
| 20260502183516 | 18 | 349 | 3.2 | 4.8 | 0.00 | 0.00 | 0.00 | 60 | |
| 20260502182515 | 18 | 350 | 1.6 | 3.2 | 0.00 | 0.00 | 0.00 | 60 | |
| 20260502181515 | 19 | 340 | 1.6 | 3.2 | 0.00 | 0.00 | 0.00 | 60 | |
| 20260502180516 | 19 | 159 | 1.6 | 3.2 | 0.00 | 0.00 | 0.00 | 60 | |
| 20260502170516 | 22 | 244 | 0.0 | 1.6 | 0.00 | 0.00 | 0.00 | 51 | |
| 20260502163517 | 23 | 255 | 0.0 | 3.2 | 0.00 | 0.00 | 0.00 | 47 | |
| 20260502162517 | 23 | 232 | 1.6 | 6.4 | 0.00 | 0.00 | 0.00 | 46 | |
| 20260502161535 | 23 | 225 | 1.6 | 6.4 | 0.00 | 0.00 | 0.00 | 48 | |
| 20260502160516 | 23 | 237 | 1.6 | 6.4 | 0.00 | 0.00 | 0.00 | 49 | |
| 20260502151517 | 25 | 331 | 1.6 | 4.8 | 0.00 | 0.00 | 0.00 | 43 | |
| 20260502150516 | 24 | 225 | 1.6 | 6.4 | 0.00 | 0.00 | 0.00 | 45 | |
| 20260502130517 | 23 | 145 | 4.8 | 11.3 | 0.00 | 0.00 | 0.00 | 46 | |
| 20260502123515 | 23 | 178 | 4.8 | 11.3 | 0.00 | 0.00 | 0.00 | 45 | |
| 20260502122516 | 23 | 133 | 3.2 | 11.3 | 0.00 | 0.00 | 0.00 | 48 | |
| 20260502121536 | 23 | 157 | 6.4 | 14.5 | 0.00 | 0.00 | 0.00 | 47 | |
| 20260502120516 | 23 | 150 | 4.8 | 11.3 | 0.00 | 0.00 | 0.00 | 50 | |
| 20260502115537 | 22 | 147 | 4.8 | 11.3 | 0.00 | 0.00 | 0.00 | 51 | |
| 20260502114517 | 22 | 178 | 6.4 | 16.1 | 0.00 | 0.00 | 0.00 | 49 | |
| 20260502113515 | 23 | 209 | 3.2 | 9.7 | 0.00 | 0.00 | 0.00 | 50 | |
| 20260502112515 | 22 | 181 | 4.8 | 9.7 | 0.00 | 0.00 | 0.00 | 52 | |
| 20260502111516 | 22 | 157 | 3.2 | 8.0 | 0.00 | 0.00 | 0.00 | 55 | |
| 20260502110516 | 22 | 180 | 6.4 | 11.3 | 0.00 | 0.00 | 0.00 | 56 | |
| 20260502105516 | 21 | 168 | 3.2 | 8.0 | 0.00 | 0.00 | 0.00 | 57 | |
| 20260502104517 | 21 | 128 | 6.4 | 12.9 | 0.00 | 0.00 | 0.00 | 58 | |
| 20260502103557 | 21 | 167 | 8.0 | 17.7 | 0.00 | 0.00 | 0.00 | 58 | |
| 20260502102515 | 20 | 151 | 3.2 | 11.3 | 0.00 | 0.00 | 0.00 | 58 | |
| 20260502101516 | 20 | 151 | 6.4 | 11.3 | 0.00 | 0.00 | 0.00 | 60 | |
| 20260502100516 | 19 | 199 | 3.2 | 8.0 | 0.00 | 0.00 | 0.00 | 60 | |
| 20260502091515 | 18 | 188 | 6.4 | 11.3 | 0.00 | 0.00 | 0.00 | 61 | |
| 20260502090515 | 18 | 167 | 6.4 | 9.7 | 0.00 | 0.00 | 0.00 | 61 | |
| 20260502071518 | 15 | 199 | 1.6 | 6.4 | 0.00 | 0.00 | 0.00 | 71 | |
| 20260502070517 | 14 | 154 | 3.2 | 8.0 | 0.00 | 0.00 | 0.00 | 72 | |
| 20260502065515 | 13 | 155 | 0.0 | 1.6 | 0.00 | 0.00 | 0.00 | 72 | |
| 20260502064516 | 13 | 160 | 1.6 | 3.2 | 0.00 | 0.00 | 0.00 | 72 | |
| 20260502063516 | 12 | 146 | 0.0 | 1.6 | 0.00 | 0.00 | 0.00 | 77 | |
| 20260502062517 | 11 | 0.0 | 0.0 | 0.00 | 0.00 | 0.00 | 79 | ||
| 20260502061517 | 11 | 58 | 0.0 | 1.6 | 0.00 | 0.00 | 0.00 | 77 | |
| 20260502060557 | 11 | 0.0 | 0.0 | 0.00 | 0.00 | 0.00 | 77 | ||
| 20260502055518 | 11 | 0.0 | 0.0 | 0.00 | 0.00 | 0.00 | 77 | ||
| 20260502054515 | 11 | 0.0 | 0.0 | 0.00 | 0.00 | 0.00 | 76 | ||
| 20260502053536 | 11 | 0.0 | 0.0 | 0.00 | 0.00 | 0.00 | 74 | ||
| 20260502052515 | 11 | 0.0 | 0.0 | 0.00 | 0.00 | 0.00 | 73 | ||
| 20260502051516 | 11 | 9 | 1.6 | 1.6 | 0.00 | 0.00 | 0.00 | 73 | |
| 20260502050516 | 10 | 0.0 | 0.0 | 0.00 | 0.00 | 0.00 | 75 | ||
| 20260502045517 | 10 | 29 | 1.6 | 1.6 | 0.00 | 0.00 | 0.00 | 74 | |
| 20260502044517 | 10 | 25 | 0.0 | 1.6 | 0.00 | 0.00 | 0.00 | 75 | |
| 20260502043555 | 10 | 0.0 | 0.0 | 0.00 | 0.00 | 0.00 | 75 | ||
| 20260502042516 | 10 | 128 | 1.6 | 3.2 | 0.00 | 0.00 | 0.00 | 76 | |
| 20260502041556 | 10 | 32 | 1.6 | 1.6 | 0.00 | 0.00 | 0.00 | 74 | |
| 20260502040556 | 10 | 16 | 1.6 | 3.2 | 0.00 | 0.00 | 0.00 | 74 | |
| 20260502035517 | 10 | 68 | 1.6 | 1.6 | 0.00 | 0.00 | 0.00 | 74 | |
| 20260502034517 | 10 | 0.0 | 0.0 | 0.00 | 0.00 | 0.00 | 73 | ||
| 20260502033517 | 10 | 68 | 0.0 | 1.6 | 0.00 | 0.00 | 0.00 | 73 | |
| 20260502032515 | 10 | 0.0 | 0.0 | 0.00 | 0.00 | 0.00 | 73 | ||
| 20260502031535 | 11 | 0.0 | 0.0 | 0.00 | 0.00 | 0.00 | 72 | ||
| 20260502030516 | 11 | 9 | 3.2 | 4.8 | 0.00 | 0.00 | 0.00 | 72 | |
| 20260502025537 | 11 | 10 | 3.2 | 3.2 | 0.00 | 0.00 | 0.00 | 72 | |
| 20260502024516 | 11 | 10 | 3.2 | 3.2 | 0.00 | 0.00 | 0.00 | 70 | |
| 20260502023517 | 11 | 0.0 | 0.0 | 0.00 | 0.00 | 0.00 | 69 | ||
| 20260502022517 | 11 | 0.0 | 0.0 | 0.00 | 0.00 | 0.00 | 68 | ||
| 20260502021535 | 11 | 0.0 | 0.0 | 0.00 | 0.00 | 0.00 | 68 | ||
| 20260502020515 | 11 | 0.0 | 0.0 | 0.00 | 0.00 | 0.00 | 68 | ||
| 20260502015516 | 11 | 0.0 | 0.0 | 0.00 | 0.00 | 0.00 | 67 | ||
| 20260502014516 | 12 | 0.0 | 0.0 | 0.00 | 0.00 | 0.00 | 68 | ||
| 20260502013538 | 12 | 0.0 | 0.0 | 0.00 | 0.00 | 0.00 | 67 | ||
| 20260502012517 | 12 | 0.0 | 0.0 | 0.00 | 0.00 | 0.00 | 67 | ||
| 20260502011517 | 12 | 16 | 1.6 | 1.6 | 0.00 | 0.00 | 0.00 | 67 | |
| 20260502010515 | 12 | 85 | 1.6 | 1.6 | 0.00 | 0.00 | 0.00 | 67 | |
| 20260502005515 | 12 | 0.0 | 0.0 | 0.00 | 0.00 | 0.00 | 65 |